GW4756 Weather Reports


time (UTC)temp
C
wind
direction
speed
KPH
gust
KPH
rain 1hr
cm
rain 24hr
cm
rain mn
cm
humidity
%
barometer
mb
20260505165336 25 100 1.6 12.9 0.00 0.00 0.00 45 1016.1
20260505164836 25 271 3.2 12.9 0.00 0.00 0.00 47 1016.1
20260505164336 25 178 3.2 9.7 0.00 0.00 0.00 47 1016.2
20260505163837 25 203 1.6 9.7 0.00 0.00 0.00 49 1016.4
20260505163553 25 179 3.2 11.3 0.00 0.00 0.00 48 1016.1
20260505163341 25 179 3.2 11.3 0.00 0.00 0.00 48 1016.1
20260505163102 25 154 3.2 12.9 0.00 0.00 0.00 50 1016.3
20260505162336 24 197 1.6 12.9 0.00 0.00 0.00 50 1016.2
20260505161837 24 261 3.2 11.3 0.00 0.00 0.00 49 1016.2
20260505161559 24 154 1.6 11.3 0.00 0.00 0.00 48 1016.4
20260505161104 24 54 1.6 11.3 0.00 0.00 0.00 50 1016.3
20260505160336 23 77 3.2 9.7 0.00 0.00 0.00 50 1016.3
20260505153336 23 215 3.2 6.4 0.00 0.00 0.00 54 1016.8
20260505152836 23 244 0.0 9.7 0.00 0.00 0.00 55 1016.7
20260505152337 22 287 3.2 9.7 0.00 0.00 0.00 56 1016.6
20260505151837 22 241 1.6 6.4 0.00 0.00 0.00 56 1016.7
20260505151336 22 123 1.6 6.4 0.00 0.00 0.00 57 1016.9
20260505150838 22 290 3.2 9.7 0.00 0.00 0.00 58 1016.9
20260505150336 22 254 1.6 9.7 0.00 0.00 0.00 58 1017.3
20260505140553 20 246 6.4 14.5 0.00 0.00 0.00 65 1016.8
20260505124836 17 254 8.0 14.5 0.00 0.00 0.00 72 1016.9
20260505124336 16 269 6.4 14.5 0.00 0.00 0.00 72 1016.9
20260505123836 16 275 3.2 12.9 0.00 0.00 0.00 72 1016.9
20260505123556 16 251 4.8 12.9 0.00 0.00 0.00 73 1016.9
20260505122836 16 205 1.6 11.3 0.00 0.00 0.00 73 1017.0
20260505122337 16 267 0.0 9.7 0.00 0.00 0.00 74 1016.9
20260505121836 15 266 0.0 9.7 0.00 0.00 0.00 74 1016.9
20260505121336 15 250 3.2 9.7 0.00 0.00 0.00 74 1017.0
20260505120836 15 258 0.0 9.7 0.00 0.00 0.00 74 1016.8
20260505120336 15 252 0.0 4.8 0.00 0.00 0.00 75 1016.8
20260505115836 15 236 3.2 4.8 0.00 0.00 0.00 75 1016.8
20260505115336 15 277 3.2 4.8 0.00 0.00 0.00 75 1016.7
20260505114836 14 268 1.6 4.8 0.00 0.00 0.00 76 1016.8
20260505114336 14 225 0.0 4.8 0.00 0.00 0.00 76 1016.7
20260505113836 14 256 1.6 4.8 0.00 0.00 0.00 76 1016.9
20260505113336 13 250 1.6 3.2 0.00 0.00 0.00 76 1016.8
20260505112836 13 232 0.0 3.2 0.00 0.00 0.00 76 1016.5
20260505112336 13 232 0.0 1.6 0.00 0.00 0.00 76 1016.6
20260505111836 13 232 0.0 1.6 0.00 0.00 0.00 76 1016.5
20260505111336 13 232 0.0 1.6 0.00 0.00 0.00 76 1016.2
20260505110836 13 232 0.0 1.6 0.00 0.00 0.00 75 1016.3
20260505110336 13 232 1.6 3.2 0.00 0.00 0.00 75 1016.3
20260505102101 13 263 1.6 3.2 0.00 0.00 0.00 75 1015.8
20260505101336 13 263 1.6 3.2 0.00 0.00 0.00 75 1015.8
20260505100837 13 239 1.6 3.2 0.00 0.00 0.00 75 1015.6
20260505100336 13 233 0.0 3.2 0.00 0.00 0.00 75 1015.8
20260505095336 13 211 0.0 1.6 0.00 0.00 0.00 76 1015.8
20260505094836 13 210 0.0 3.2 0.00 0.00 0.00 75 1015.4
20260505094336 13 210 0.0 6.4 0.00 0.00 0.00 75 1015.5
20260505094102 13 215 3.2 6.4 0.00 0.00 0.00 75 1015.7
20260505093340 13 184 0.0 3.2 0.00 0.00 0.00 75 1015.6
20260505092836 13 235 0.0 1.6 0.00 0.00 0.00 75 1015.5
20260505092336 13 235 0.0 1.6 0.00 0.00 0.00 75 1015.4
20260505091836 13 257 0.0 0.0 0.00 0.00 0.00 74 1015.4
20260505091337 13 257 0.0 0.0 0.00 0.00 0.00 74 1015.3
20260505090836 13 257 0.0 0.0 0.00 0.00 0.00 74 1015.4
20260505090336 13 257 0.0 0.0 0.00 0.00 0.00 74 1015.4
20260505085836 13 257 0.0 0.0 0.00 0.00 0.00 74 1015.4
20260505085557 13 257 0.0 0.0 0.00 0.00 0.00 73 1015.5
20260505084836 13 257 0.0 0.0 0.00 0.00 0.00 73 1015.2
20260505084336 13 257 0.0 0.0 0.00 0.00 0.00 73 1015.3
20260505083836 13 257 0.0 0.0 0.00 0.00 0.00 73 1015.3
20260505083336 13 257 0.0 0.0 0.00 0.00 0.00 72 1015.3
20260505083055 13 257 0.0 0.0 0.00 0.00 0.00 72 1015.4
20260505082336 13 257 0.0 0.0 0.00 0.00 0.00 71 1015.4
20260505081836 14 257 0.0 0.0 0.00 0.00 0.00 71 1015.3
20260505080836 14 257 0.0 0.0 0.00 0.00 0.00 72 1015.2
20260505080336 14 257 0.0 0.0 0.00 0.00 0.00 71 1015.2
20260505080057 14 257 0.0 0.0 0.00 0.00 0.00 71 1015.1
20260505075336 14 257 0.0 0.0 0.00 0.00 0.00 71 1015.1
20260505075043 14 256 0.0 0.0 0.00 0.00 0.00 71 1015.1
20260505074323 14 256 0.0 0.0 0.00 0.00 0.00 71 1015.2
20260505073823 14 256 0.0 0.0 0.00 0.00 0.00 71 1015.1
20260505073323 14 256 0.0 0.0 0.00 0.00 0.00 70 1015.0
20260505072823 15 257 0.0 0.0 0.00 0.00 0.00 70 1014.9
20260505072322 15 257 0.0 0.0 0.00 0.00 0.00 69 1015.0
20260505071823 15 257 0.0 0.0 0.00 0.00 0.00 69 1015.0
20260505071323 15 257 0.0 0.0 0.00 0.00 0.00 69 1014.9
20260505070822 15 257 0.0 0.0 0.00 0.00 0.00 68 1014.8
20260505070322 15 257 0.0 0.0 0.00 0.00 0.00 68 1014.8
20260505065822 15 257 0.0 0.0 0.00 0.00 0.00 68 1014.9
20260505065541 15 257 0.0 0.0 0.00 0.00 0.00 68 1014.9
20260505064823 15 257 0.0 0.0 0.00 0.00 0.00 67 1015.1
20260505064323 15 257 0.0 0.0 0.00 0.00 0.00 68 1014.9
20260505064041 15 257 0.0 0.0 0.00 0.00 0.00 67 1014.9
20260505063547 15 295 0.0 1.6 0.00 0.00 0.00 67 1014.9
20260505062823 16 295 0.0 1.6 0.00 0.00 0.00 67 1014.8
20260505062323 16 296 0.0 1.6 0.00 0.00 0.00 67 1014.9
20260505061823 16 296 0.0 1.6 0.00 0.00 0.00 67 1015.0
20260505061323 16 296 0.0 1.6 0.00 0.00 0.00 66 1015.0
20260505060823 16 296 0.0 3.2 0.00 0.00 0.00 66 1014.9
20260505060323 16 296 1.6 3.2 0.00 0.00 0.00 66 1014.9
20260505055823 16 297 0.0 3.2 0.00 0.00 0.00 65 1015.0
20260505055323 16 297 0.0 4.8 0.00 0.00 0.00 66 1014.9
20260505054823 16 326 0.0 4.8 0.00 0.00 0.00 66 1014.8
20260505054322 16 270 0.0 1.6 0.00 0.00 0.00 66 1014.9
20260505053823 16 270 0.0 1.6 0.00 0.00 0.00 66 1015.0
20260505053323 16 255 0.0 1.6 0.00 0.00 0.00 65 1015.0
20260505052823 16 11 0.0 1.6 0.00 0.00 0.00 65 1015.3
20260505052323 16 78 0.0 1.6 0.00 0.00 0.00 65 1015.0
20260505051823 16 66 0.0 4.8 0.00 0.00 0.00 65 1015.0
20260505051541 17 49 0.0 4.8 0.00 0.00 0.00 64 1015.2
20260505050822 17 188 0.0 3.2 0.00 0.00 0.00 64 1015.1
20260505050322 17 212 0.0 3.2 0.00 0.00 0.00 64 1015.0
20260505041322 17 162 0.0 4.8 0.00 0.00 0.00 61 1014.9
20260505040822 17 238 1.6 4.8 0.00 0.00 0.00 62 1015.0
20260505040322 18 47 0.0 4.8 0.00 0.00 0.00 61 1015.0
20260505035823 18 301 1.6 4.8 0.00 0.00 0.00 61 1014.9
20260505035323 18 157 1.6 11.3 0.00 0.00 0.00 61 1015.0
20260505034822 18 277 1.6 11.3 0.00 0.00 0.00 61 1015.0
20260505034322 18 91 0.0 4.8 0.00 0.00 0.00 61 1014.9
20260505033823 18 328 0.0 6.4 0.00 0.00 0.00 60 1014.8
20260505033323 18 121 1.6 6.4 0.00 0.00 0.00 61 1014.9
20260505032823 18 286 1.6 4.8 0.00 0.00 0.00 60 1015.0
20260505032323 18 219 0.0 4.8 0.00 0.00 0.00 60 1015.0
20260505031822 18 93 1.6 4.8 0.00 0.00 0.00 60 1015.1
20260505031549 18 134 1.6 4.8 0.00 0.00 0.00 60 1015.1
20260505030823 18 119 1.6 4.8 0.00 0.00 0.00 59 1014.7
20260505030323 19 306 0.0 4.8 0.00 0.00 0.00 60 1014.8
20260505025824 19 145 0.0 4.8 0.00 0.00 0.00 59 1014.9
20260505025311 19 342 1.6 3.2 0.00 0.00 0.00 59 1014.8
20260505024811 19 104 0.0 3.2 0.00 0.00 0.00 59 1014.8
20260505024531 19 135 3.2 6.4 0.00 0.00 0.00 58 1014.9
20260505023810 19 215 1.6 6.4 0.00 0.00 0.00 58 1014.8
20260505023311 20 38 0.0 6.4 0.00 0.00 0.00 57 1014.9
20260505022811 20 250 1.6 6.4 0.00 0.00 0.00 57 1014.8
20260505022311 20 70 1.6 11.3 0.00 0.00 0.00 56 1014.8
20260505022033 20 181 1.6 11.3 0.00 0.00 0.00 55 1014.6
20260505021310 20 301 3.2 6.4 0.00 0.00 0.00 54 1014.6
20260505020810 20 124 3.2 9.7 0.00 0.00 0.00 51 1014.5
20260505020311 20 173 1.6 9.7 0.00 0.00 0.00 51 1014.5
20260505015811 20 181 1.6 11.3 0.00 0.00 0.00 49 1014.4
20260505015305 21 319 3.2 11.3 0.00 0.00 0.00 48 1014.2
20260505014758 21 350 3.2 6.4 0.00 0.00 0.00 47 1014.3
20260505013758 21 339 1.6 3.2 0.00 0.00 0.00 44 1014.2
20260505013258 21 339 0.0 1.6 0.00 0.00 0.00 44 1014.0
20260505012758 21 339 0.0 1.6 0.00 0.00 0.00 43 1014.1
20260505012258 21 339 0.0 3.2 0.00 0.00 0.00 43 1014.1
20260505011758 21 339 0.0 3.2 0.00 0.00 0.00 42 1013.9
20260505011258 21 339 0.0 3.2 0.00 0.00 0.00 42 1014.0
20260505010758 21 38 1.6 3.2 0.00 0.00 0.00 42 1013.9
20260505010522 21 38 1.6 3.2 0.00 0.00 0.00 42 1013.8
20260505005759 21 134 0.0 3.2 0.00 0.00 0.00 41 1013.8
20260505005259 22 134 1.6 3.2 0.00 0.00 0.00 41 1013.7
20260505004758 22 86 0.0 4.8 0.00 0.00 0.00 41 1013.5
20260505003759 22 356 0.0 3.2 0.00 0.00 0.00 40 1013.5
20260505003258 22 356 0.0 3.2 0.00 0.00 0.00 40 1013.4
20260505003020 22 108 0.0 1.6 0.00 0.00 0.00 40 1013.2
20260505002247 22 108 0.0 3.2 0.00 0.00 0.00 39 1013.3
20260505001747 22 107 0.0 3.2 0.00 0.00 0.00 39 1013.2
20260505001247 22 329 0.0 3.2 0.00 0.00 0.00 38 1013.2
20260505000747 23 330 0.0 9.7 0.00 0.00 0.00 38 1013.3
20260505000246 23 249 0.0 9.7 0.00 0.00 0.00 38 1013.2
20260504235746 23 192 0.0 4.8 0.00 0.00 0.00 38 1013.2
20260504235246 23 284 3.2 4.8 0.00 0.00 0.00 37 1013.0
20260504234746 23 103 3.2 4.8 0.00 0.00 0.00 37 1013.0
20260504234247 23 231 1.6 4.8 0.00 0.00 0.00 36 1013.0
20260504233746 23 320 0.0 4.8 0.00 0.00 0.00 36 1012.9
20260504233247 24 258 1.6 4.8 0.00 0.00 0.00 35 1012.9
20260504232746 24 252 0.0 6.4 0.00 0.00 0.00 35 1012.8
20260504232247 24 329 0.0 6.4 0.00 0.00 0.00 34 1012.8
20260504231747 24 274 0.0 3.2 0.00 0.00 0.00 34 1012.8
20260504231247 24 275 0.0 9.7 0.00 0.00 0.00 34 1012.6
20260504230747 24 266 6.4 9.7 0.00 0.00 0.00 34 1012.7
20260504230247 25 253 3.2 9.7 0.00 0.00 0.00 34 1012.7
20260504230014 25 280 3.2 6.4 0.00 0.00 0.00 33 1012.6
20260504225247 25 252 3.2 6.4 0.00 0.00 0.00 33 1012.6
20260504224747 25 139 1.6 3.2 0.00 0.00 0.00 33 1012.7
20260504224247 25 120 1.6 11.3 0.00 0.00 0.00 32 1012.8
20260504223747 25 162 0.0 11.3 0.00 0.00 0.00 32 1012.7
20260504223246 25 28 1.6 9.7 0.00 0.00 0.00 31 1012.7
20260504222746 25 162 1.6 4.8 0.00 0.00 0.00 32 1012.8
20260504222246 25 238 0.0 6.4 0.00 0.00 0.00 31 1012.8
20260504221746 25 253 1.6 6.4 0.00 0.00 0.00 32 1012.7
20260504221007 25 154 1.6 11.3 0.00 0.00 0.00 30 1012.8
20260504220247 25 324 1.6 11.3 0.00 0.00 0.00 32 1013.0
20260504215747 25 23 0.0 11.3 0.00 0.00 0.00 32 1012.7
20260504215246 25 298 4.8 17.7 0.00 0.00 0.00 33 1013.0
20260504214746 26 226 0.0 17.7 0.00 0.00 0.00 32 1012.8
20260504214246 26 297 6.4 14.5 0.00 0.00 0.00 32 1012.6
20260504213746 26 242 6.4 11.3 0.00 0.00 0.00 33 1012.8
20260504213507 26 1 1.6 12.9 0.00 0.00 0.00 33 1012.8
20260504212746 26 294 0.0 12.9 0.00 0.00 0.00 34 1012.8
20260504212246 25 243 4.8 11.3 0.00 0.00 0.00 34 1012.9
20260504211747 25 183 1.6 11.3 0.00 0.00 0.00 33 1012.9
20260504211247 25 46 3.2 9.7 0.00 0.00 0.00 32 1012.8
20260504210746 26 245 3.2 14.5 0.00 0.00 0.00 32 1013.0
20260504210504 26 42 1.6 14.5 0.00 0.00 0.00 33 1012.9
20260504210010 26 302 6.4 11.3 0.00 0.00 0.00 34 1012.9
20260504205246 25 256 4.8 9.7 0.00 0.00 0.00 35 1012.8
20260504204746 25 260 1.6 11.3 0.00 0.00 0.00 35 1013.2
20260504204246 25 266 6.4 14.5 0.00 0.00 0.00 34 1013.0
20260504203746 25 91 3.2 14.5 0.00 0.00 0.00 31 1013.0
20260504203247 25 227 9.7 14.5 0.00 0.00 0.00 33 1013.3
20260504202747 25 287 6.4 11.3 0.00 0.00 0.00 34 1013.2
20260504202247 26 109 4.8 14.5 0.00 0.00 0.00 33 1013.1
20260504201747 26 12 1.6 14.5 0.00 0.00 0.00 33 1013.2
20260504201247 26 252 3.2 17.7 0.00 0.00 0.00 34 1013.2
20260504200747 26 291 1.6 17.7 0.00 0.00 0.00 33 1013.4
20260504200247 26 283 3.2 14.5 0.00 0.00 0.00 33 1013.4
20260504195747 26 239 3.2 16.1 0.00 0.00 0.00 35 1013.3
20260504195247 25 236 1.6 16.1 0.00 0.00 0.00 34 1013.5
20260504194747 25 281 6.4 16.1 0.00 0.00 0.00 32 1013.6
20260504194246 25 269 9.7 11.3 0.00 0.00 0.00 34 1013.6
20260504193746 25 288 3.2 22.5 0.00 0.00 0.00 33 1013.7
20260504193247 25 257 8.0 22.5 0.00 0.00 0.00 34 1013.7
20260504192747 25 251 6.4 16.1 0.00 0.00 0.00 34 1013.7
20260504192247 25 250 8.0 11.3 0.00 0.00 0.00 35 1013.8
20260504191746 25 100 4.8 9.7 0.00 0.00 0.00 34 1013.7
20260504191246 25 68 6.4 12.9 0.00 0.00 0.00 34 1013.9
20260504190746 25 313 1.6 17.7 0.00 0.00 0.00 34 1013.9
20260504190247 25 233 3.2 17.7 0.00 0.00 0.00 34 1014.2
20260504185507 26 297 8.0 20.9 0.00 0.00 0.00 35 1014.2
20260504184746 26 294 6.4 12.9 0.00 0.00 0.00 34 1014.3
20260504184246 25 298 8.0 20.9 0.00 0.00 0.00 35 1014.5
20260504183746 25 249 9.7 20.9 0.00 0.00 0.00 33 1014.5
20260504183247 25 310 8.0 14.5 0.00 0.00 0.00 34 1014.2
20260504182747 25 221 3.2 14.5 0.00 0.00 0.00 34 1014.6
20260504182247 25 287 6.4 14.5 0.00 0.00 0.00 35 1014.6
20260504181747 25 236 4.8 16.1 0.00 0.00 0.00 33 1014.7
20260504181246 25 295 4.8 20.9 0.00 0.00 0.00 36 1014.5
20260504180747 25 242 4.8 20.9 0.00 0.00 0.00 36 1014.5
20260504180247 24 261 3.2 11.3 0.00 0.00 0.00 36 1014.7
20260504180006 24 283 4.8 11.3 0.00 0.00 0.00 35 1014.5
20260504175247 24 276 4.8 11.3 0.00 0.00 0.00 36 1014.7
20260504175005 24 255 6.4 11.3 0.00 0.00 0.00 35 1014.9
20260504174246 25 284 4.8 6.4 0.00 0.00 0.00 34 1014.8
20260504173746 24 262 3.2 12.9 0.00 0.00 0.00 38 1014.8
20260504173246 24 259 8.0 12.9 0.00 0.00 0.00 38 1014.8
20260504173010 24 274 3.2 11.3 0.00 0.00 0.00 36 1015.2
20260504172247 25 214 6.4 11.3 0.00 0.00 0.00 35 1015.1
20260504170746 24 191 4.8 17.7 0.00 0.00 0.00 36 1015.5
20260504170246 23 247 0.0 16.1 0.00 0.00 0.00 39 1015.4